Regional Weather Roundup
Issued by NWS Newport/Morehead, NC

Home | Current Version | Previous Version | Text Only | Print | Product List | Glossary On
Versions: 1 2 3 4 5 6 7 8 9 10 11 12 13 14 15 16 17 18 19 20 21 22 23 24 25 26 27 28 29 30 31 32 33 34 35 36 37 38 39 40 41 42 43 44 45 46 47 48 49 50
000
ASUS42 KMHX 310322
RWRMHX
WEATHER ROUNDUP FOR EASTERN NORTH CAROLINA
NATIONAL WEATHER SERVICE NEWPORT/MOREHEAD CITY NC
1100 PM EDT WED JUL 30 2014

NOTE: "FAIR" INDICATES FEW OR NO CLOUDS BELOW 12,000 FEET
WITH NO SIGNIFICANT WEATHER AND/OR OBSTRUCTIONS TO VISIBILITY

NCZ015>017-031-032-045>047-102-103-310400-
NORTH COAST

CITY           SKY/WX    TMP DP  RH WIND       PRES   REMARKS
EDENTON        CLEAR     72  64  75 SE6       30.10S
ELIZABETH CITY CLEAR     70  62  76 CALM      30.10R
KITTY HAWK     CLEAR     73  60  63 E3        30.08S
MANTEO         NOT AVBL

$$

NCZ045>047-081-094-103-104-310400-
CENTRAL COAST

CITY           SKY/WX    TMP DP  RH WIND       PRES   REMARKS
FRISCO         PTCLDY    73  64  73 E5        30.08S
SWANQUARTER      N/A     68 N/A N/A NE5       30.06S

$$

NCZ095-097-098-100-101-310400-
SOUTHERN COAST

CITY           SKY/WX    TMP DP  RH WIND       PRES   REMARKS
BEAUFORT       CLOUDY    73  68  84 NE5       30.07S
CEDAR ISLAND     N/A     77 N/A N/A NE12      30.12S
JACKSONVILLE   CLOUDY    75  67  76 E7        30.07R
NEWPORT        NOT AVBL
PINEY ISLAND   CLOUDY    78  68  71 E9        30.07R
WILMINGTON     PTCLDY    73  68  84 NE3       30.06S


$$

NCZ011>013-027>030-043-044-078>080-089-090>093-098-310400-
COASTAL PLAIN

CITY           SKY/WX    TMP DP  RH WIND       PRES   REMARKS
AHOSKIE        PTCLDY    67  64  91 CALM      30.10R
CLINTON        CLOUDY    73  68  83 CALM      30.08R
ELIZABETHTOWN  MOCLDY    73  65  76 CALM      30.07R
GOLDSBORO      CLOUDY    70  69  98 CALM      30.06S
GREENVILLE     MOCLDY    72  66  83 CALM      30.11R
HAVELOCK       CLOUDY    71  66  84 E3        30.08R
KENANSVILLE    CLOUDY    69  66  90 CALM      30.09R
KINSTON        CLOUDY    74  64  71 SE3       30.09S
NEW BERN       CLOUDY    75  67  76 CALM      30.09R
RICHLANDS      CLOUDY    70  64  83 CALM      30.08S
ROANOKE RAPIDS NOT AVBL
ROCKY MOUNT    MOCLDY    71  64  78 CALM      30.09R
WASHINGTON     MOCLDY    70  64  80 E3        30.09F
WHITEVILLE     PTCLDY    73  65  78 CALM      30.06S

$$

AMZ130-135-150-152-154-156-158-170-250-252-270-ANZ085-086-088-633-658-670-310400-
MARINE OBSERVATIONS

STATION/POSITION TIME  TEMP    WIND        PRES    WAVE   SWELL
                       AIR SEA DIR/SP/G            HT/PER HT/PER
                 (UTC) (F)     (DEG/KT/KT) (MB)    (FT/S) (FT/S)
CHESAPEAKE LIGHT NOT AVBL
BUOY 44014       0300   74 78   90/  6/  8 1018.6    2/ 7   2/ 7
DUCK             0300   75 77  120/  9/ 11 1018.2
2E DUCK          0200                        N/A     2/ 8
OREGON INLET     0300   74 79   70/  7/  9 1018.7
BUOY 44095       0300      78                N/A     3/ 8
20E OREGON INLET NOT AVBL
HATTERAS CG      0300   74 80   70/  6/  7 1018.9
DIAMOND BUOY     0300          VRB 14/ 16  1017.7    4/ 7   3/ 7
CAPE LOOKOUT     0300   79      60/ 12/ 14 1018.1
BEAUFORT LAB     0300   74 82   30/  3/  5 1017.8
30 SE NEW RIVER  0300   80 81   90/ 12/ 14 1017.8    4/ 6   2/ 8
5 SE WRIGHTSVILL 0300   76 81  100/ 10/ 14   N/A
BUOY 41002       NOT AVBL
BUOY 41004       0300   82 83   90/ 12/ 16 1016.1    4/ 5   2/ 7

$$


USA.gov is the U.S. government's official web portal to all federal, state and local government web resources and services.